Regional Weather Roundup
Issued by NWS

Home | Current Version | Previous Version | Graphics & Text | Print | Product List | Glossary On
Versions: 1 2 3 4 5 6 7 8 9 10 11 12 13 14 15 16 17 18 19 20 21 22 23 24 25 26 27 28 29 30 31 32 33 34 35 36 37 38 39 40 41 42 43 44 45 46 47 48 49 50
000
ASUS43 KLOT 241106
RWRIL

ILLINOIS REGIONAL WEATHER ROUNDUP
NATIONAL WEATHER SERVICE CHICAGO/ROMEOVILLE IL
600 AM CDT THU JUL 24 2014

NOTE: "FAIR" INDICATES FEW OR NO CLOUDS BELOW 12,000 FEET WITH NO
SIGNIFICANT WEATHER AND/OR OBSTRUCTIONS TO VISIBILITY.

* THESE STATIONS ARE NOT UNDER NWS QUALITY CONTROL. THEY ALSO MAY NOT
  REPORT WEATHER SUCH AS PRECIPITATION OR FOG.

ILZ001-002-007-009-015-016-024-241200-
NORTHWEST ILLINOIS

CITY           SKY/WX    TMP DP  RH WIND       PRES   REMARKS
MOLINE         PTCLDY    57  54  89 CALM      30.17R
STERLING*      CLEAR     54  48  82 CALM      30.18S
SAVANNA*       MOCLDY    57  54  89 CALM      30.19R
$$

ILZ003-004-008-010-011-017-018-241200-
NORTH CENTRAL ILLINOIS

CITY           SKY/WX    TMP DP  RH WIND       PRES   REMARKS
ROCKFORD       PTCLDY    55  49  80 N6        30.21S
FREEPORT*      CLEAR     51  48  92 CALM      30.21S
ROCHELLE*      CLEAR     53  49  85 NE6       30.18R
DE KALB*       CLEAR     51  48  91 N6        30.19R
PERU*          CLEAR     55  52  88 NE3       30.17R
$$

ILZ005-006-012>014-019>023-241200-
NORTHEAST ILLINOIS

CITY           SKY/WX    TMP DP  RH WIND       PRES   REMARKS
CHICAGO-OHARE  PTCLDY    57  50  77 N7        30.16R
CHICAGO-MIDWAY CLEAR     61  55  81 N8        30.15R
AURORA         CLEAR     51  47  86 NW3       30.17R
LANSING*       PTCLDY    61  55  79 N3        30.14R
JOLIET*        CLEAR     56  51  86 N6        30.17R
WAUKEGAN       CLEAR     54  50  86 N6        30.16R
DUPAGE AIRPORT CLEAR     52  49  89 N5        30.16R
KANKAKEE*      CLEAR     57  55  94 N5        30.14R
WHEELING       CLEAR     56  51  84 N6        30.18R
MORRIS*        CLEAR     54  52  95 CALM      30.16R
ROMEOVILLE*    CLEAR     55  53  94 N5        30.16R
NORTHERLY ISL    N/A     61  55  81 S7          N/A
$$

LMZ740>746-241200-
SOUTHERN LAKE MICHIGAN

STATION/POSITION SKY/WX   TEMP    WIND        PRES    VSBY  WAVE
                          AIR SEA DIR/SP/G                  HT/PER
                          (F)     (DEG/KT/KT) (MB)    (MI)  (FT/S)
SOUTHERN BUOY              59 60  360/ 12/ 14 1021.2R         2/ 4
WAUKEGAN HARBOR            57     340/  7/ 10 1022.7R
BURNHAM HARBOR             61     360/  5/  9   N/A
CALUMET HARBOR             62     350/  6/  9 1019.4R
MICHIGAN CITY              61      30/ 13/ 15   N/A
MICHIGAN CITY 6N           63 69   60/ 12/ 16   N/A           4/ 2
ST. JOSEPH                 53 49   20/  6/  8   N/A           3/ 2
$$

ILZ025>027-034>036-040-047-049-050-058-095>099-241200-
WEST-CENTRAL ILLINOIS

CITY           SKY/WX    TMP DP  RH WIND       PRES   REMARKS
QUINCY         CLEAR     57  54  89 E3        30.15S
GALESBURG*     PTCLDY    54  52  95 CALM      30.17R
MACOMB*        CLEAR     55  54  97 NE3       30.18S
JACKSONVILLE*  CLEAR     57  54  89 N5        30.15R
PITTSFIELD*    CLEAR     57  54  89 CALM      30.16R
$$

ILZ028>032-037-038-041>044-048-051>054-059>061-241200-
CENTRAL ILLINOIS

CITY           SKY/WX    TMP DP  RH WIND       PRES   REMARKS
PONTIAC        CLEAR     54  52  94 N3        30.15R
PEORIA         CLEAR     58  50  75 N5        30.16R
LACON*         CLEAR     54  50  87 CALM      30.16R
LINCOLN*       CLEAR     55  51  86 N6        30.13R
SPRINGFIELD    CLEAR     57  52  83 N8        30.15R
TAYLORVILLE    CLEAR     50  48  93 N6        30.12R
$$

ILZ033-039-045-046-055>057-062-063-241200-
EAST-CENTRAL ILLINOIS

CITY           SKY/WX    TMP DP  RH WIND       PRES   REMARKS
CHAMPAIGN      CLEAR     57  54  89 N12       30.12R
DANVILLE*      CLEAR     53  52  97 N7        30.09R
RANTOUL*       CLEAR     58  53  85 N9        30.13R
MATTOON        CLEAR     52  49  89 N6        30.09R
PARIS*         CLEAR     54  53  96 CALM      30.10S
$$

ILZ079-100>102-241200-
SOUTHWEST ILLINOIS

CITY           SKY/WX    TMP DP  RH WIND       PRES   REMARKS
ALTON          CLEAR     57  55  92 CALM      30.12R
BELLEVILLE     CLEAR     57  53  86 NW6       30.10R
CAHOKIA*       CLEAR     59  53  80 N5        30.12R
SPARTA*        CLEAR     55  52  88 N5        30.11R
$$

ILZ064>066-069>071-074>076-080>082-084>086-088>090-092>094-241200-
SOUTH-CENTRAL ILLINOIS

CITY           SKY/WX    TMP DP  RH WIND       PRES   REMARKS
CARBONDALE     CLEAR     56  51  84 N5        30.08R
CAIRO*         CLEAR     60  52  75 N5        30.06R
EFFINGHAM*     CLEAR     55  50  83 N6        30.09R
MARION         CLEAR     57  52  82 N5        30.08R
MT. VERNON     CLEAR     55  48  76 N5        30.09R
CENTRALIA*     CLEAR     52  49  90 N3        30.09R
SALEM*         CLEAR     54  52  94 N3        30.09R
METROPOLIS*    CLEAR     56  50  79 N3        30.04R
$$

ILZ067-068-072-073-078-083-087-091-241200-
SOUTHEAST ILLINOIS

CITY           SKY/WX    TMP DP  RH WIND       PRES   REMARKS
LAWRENCEVILLE  PTCLDY    57  53  86 N8        30.06R
FLORA*         CLEAR     55  51  88 N7        30.08R
FAIRFIELD*     CLEAR     55  54  94 N8        30.06S
HARRISBURG*    CLEAR     56  53  88 N5        30.07R
ROBINSON*      CLEAR     57  55  92 N3        30.08R
CARMI*         CLEAR     57  55  94 NW6       30.05R
$$

ABBREVIATIONS USED IN REMARKS
   TC - TEMPERATURE IN CELSIUS
  WCI - WIND CHILL INDEX
   HX - HEAT INDEX
  VSB - VISIBILITY
$$




USA.gov is the U.S. government's official web portal to all federal, state and local government web resources and services.